Location: ?????
(37.7324°N, 23.9257°E)
Time: 08:04:58
(UTC+00:00)

Cosmos 1844 Rocket - Pass Details

Date: 29 November 2020
Orbit: 824 x 845 km, 71.0° (Epoch: 17 January)

Event Time Altitude Azimuth Distance (km) Brightness Sun altitude
Rises 04:08:22 0° 217° (SW) 3,370 5.6 -13.8°
Reaches altitude 10° 04:10:52 10° 222° (SW) 2,443 4.9 -13.3°
Maximum altitude 04:16:16 48° 297° (WNW) 1,090 2.9 -12.3°
Drops below altitude 10° 04:21:44 10° 11° (N) 2,469 5.1 -11.3°
Sets 04:24:18 0° 17° (NNE) 3,409 5.8 -10.8°
